Regional Weather Roundup
Issued by NWS

Home | Current Version | Previous Version | Graphics & Text | Print | Product List | Glossary On
Versions: 1 2 3 4 5 6 7 8 9 10 11 12 13 14 15 16 17 18 19 20 21 22 23 24 25 26 27 28 29 30 31 32 33 34 35 36 37 38 39 40 41 42 43 44 45 46 47 48 49 50
000
ASUS43 KFSD 010102
RWRSD

WEATHER ROUNDUP FOR SOUTH DAKOTA
NATIONAL WEATHER SERVICE SIOUX FALLS SD
800 PM CDT TUE JUN 30 2015

NOTE: "FAIR" INDICATES FEW OR NO CLOUDS BELOW 12,000 FEET WITH NO
SIGNIFICANT WEATHER AND/OR OBSTRUCTIONS TO VISIBILITY.


SDZ001>005-009-010-012>017-010200-
NORTHWEST AND NORTH CENTRAL SOUTH DAKOTA

CITY           SKY/WX    TMP DP  RH WIND       PRES   REMARKS
BUFFALO          N/A     83  67  58 S13       29.78S
FAITH            N/A     75  63  66 S15       29.86S
MOBRIDGE       PTSUNNY   72  65  78 E12       29.85S
$$

SDZ012>016-024>037-041>051-057-063-072>074-010200-
SOUTHWEST AND SOUTH CENTRAL SOUTH DAKOTA

CITY           SKY/WX    TMP DP  RH WIND       PRES   REMARKS
RAPID CTY ARPT SUNNY     82  66  58 NE5       29.89S
PIERRE         CLOUDY    73  66  78 SE13      29.82F
CUSTER         SUNNY     79  61  53 VRB7      30.07R
ELLSWORTH AFB  SUNNY     81  68  64 E5        29.89S
PHILIP         MOSUNNY   78  66  66 E10       29.84S
PINE RIDGE     MOSUNNY   83  67  58 NE12      29.89R
WINNER         FAIR      76  61  59 E14       29.86F
$$

SDZ004>011-016>023-039-040-010200-
NORTHEAST SOUTH DAKOTA

CITY           SKY/WX    TMP DP  RH WIND       PRES   REMARKS
ABERDEEN       PTSUNNY   74  64  71 SE6       29.86F
WATERTOWN      CLOUDY    71  61  70 SE7       29.92R
BROOKINGS      CLOUDY    72  61  68 E10       29.93R
SISSETON         N/A     72  59  63 SE7       29.90S
$$

SDZ017-020-022-023-036>040-048>070-010200-
SOUTHEAST SOUTH DAKOTA

CITY           SKY/WX    TMP DP  RH WIND       PRES   REMARKS
SIOUX FALLS    LGT RAIN  70  66  87 CALM      29.90S
HURON          CLOUDY    71  70  96 E6        29.86F FOG
MITCHELL       LGT RAIN  70  68  93 E5        29.88F
YANKTON        CLOUDY    70  66  88 N5        29.91R
$$

ABBREVIATIONS USED IN REMARKS
   TC - TEMPERATURE IN CELSIUS
  WCI - WIND CHILL INDEX
   HX - HEAT INDEX
  VSB - VISIBILITY



USA.gov is the U.S. government's official web portal to all federal, state and local government web resources and services.